Regional Weather Roundup
Issued by NWS

Home | Current Version | Previous Version | Text Only | Print | Product List | Glossary Off
Versions: 1 2 3 4 5 6 7 8 9 10 11 12 13 14 15 16 17 18 19 20 21 22 23 24 25 26 27

000
ASUS45 KCYS 200510
RWRWY

WYOMING REGIONAL WEATHER ROUNDUP
NATIONAL WEATHER SERVICE CHEYENNE WY
1000 PM MST SUN NOV 19 2017

NOTE:  "FAIR" INDICATES FEW OR NO CLOUDS BELOW 12,000 FEET
WITH NO SIGNIFICANT WEATHER AND/OR OBSTRUCTIONS TO VISIBILITY.

WYZ001-200600-
YELLOWSTONE NATIONAL PARK

CITY           SKY/WX    TMP DP  RH WIND       PRES   REMARKS
LK YELLOWSTONE   N/A     15  13  91 VRB5      30.02S WCI   8
W YELLOWSTONE  NOT AVBL

$$
WYZ002>013-054>058-071-098>099-200600-
NORTHERN WYOMING

CITY           SKY/WX    TMP DP  RH WIND       PRES   REMARKS
JACKSON        FAIR      16  13  88 N9          N/A  WCI   4
CODY           FAIR      46   1  15 W15G22    29.81R
GREYBULL       FAIR      25  22  88 NW5       29.83S WCI  19
WORLAND        FAIR      23  22  96 CALM      29.81F
SHERIDAN       FAIR      35  22  58 N6        29.69R WCI  30
BUFFALO        FAIR      39  15  37 W7        29.71F WCI  34
GILLETTE       FAIR      44  10  25 SW24G32   29.70F
HULETT         FAIR      41  14  33 SW16      29.72F
NEWCASTLE      FAIR      32  16  51 SE5       29.80F WCI  27

$$
WYZ014>020-022>026-101>103-200600-
CENTRAL WYOMING

CITY           SKY/WX    TMP DP  RH WIND       PRES   REMARKS
BIG PINEY      FAIR       9   7  92 CALM      30.07F
PINEDALE       FAIR      14  12  92 W6        30.08S WCI   5
DUBOIS         FAIR      32   5  32 NW23G32   29.92R WCI  19
LANDER         FAIR      28  14  55 NW7       29.88S WCI  21
RIVERTON       FAIR      29  14  53 SW10      29.88F WCI  20
CASPER         FAIR      37  15  40 SW21G33   29.87F WCI  26
DOUGLAS        FAIR      37  17  44 W9        29.84F WCI  30

$$
WYZ021-027>030-104>119-200600-
SOUTHERN WYOMING

CITY           SKY/WX    TMP DP  RH WIND       PRES   REMARKS
EVANSTON       FAIR      24  17  74 SW12      30.08F WCI  13
FORT BRIDGER   FAIR      28  12  52 W6        30.10S WCI  21
ROCK SPRINGS   FAIR      23  16  74 CALM      30.08S
DIXON          FAIR      13   9  83 E5        30.14F WCI   6
RAWLINS        FAIR      32  13  45 W17       30.03F WCI  21
SARATOGA       FAIR      25  10  54 SE12G18   30.06F WCI  14
LARAMIE        FAIR      32   8  36 SW20      29.97F WCI  20
CHEYENNE       FAIR      40   6  24 W21       29.95S WCI  30
TORRINGTON     FAIR      44  10  25 W16G23    29.85F
PINE BLUFFS    FAIR      36   3  25 MISG      29.92S

$$




USA.gov is the U.S. government's official web portal to all federal, state and local government web resources and services.